Location: Tamazert
(32.6352°N, 5.2072°W)
Time: 05:20:20
(UTC+00:00)

Vanguard 2 - Pass Details

Date: 03 October 2022
Orbit: 553 x 2933 km, 32.9° (Epoch: 26 November)

Event Time Altitude Azimuth Distance (km) Brightness Sun altitude
Rises 21:34:26 0° 277° (W) 6,787 13.0 -43.9°
Reaches altitude 10° 21:42:01 10° 259° (WSW) 5,670 12.3 -45.3°
Maximum altitude 21:50:07 15° 230° (SW) 4,914 11.7 -46.8°
Enters shadow 21:56:01 12° 205° (SSW) 4,859 11.5 -47.8°
Drops below altitude 10° 21:57:21 10° 200° (SSW) 4,916 - -48.0°
Sets 22:03:10 0° 179° (S) 5,451 - -49.0°
